Overview Statistics Trail Chart Weather Telemetry Raw packets
 

This is the latest recevied weather packets stored in our database for station/object K5SVV. If no packets are shown the sender has not sent any weather packets the latest 10 day(s).

<< 100 101 102 103 104 105 106 >>
Time Temp. Humidity Pressure Rain* Wind** Luminosity Snow
1787939419 36.11° C 46% 1017.3 hPa 0 mm - 739 W/m² -
1787939114 36.11° C 44% 1017.4 hPa 0 mm - 751 W/m² -
1787938814 36.11° C 46% 1017.7 hPa 0 mm - 752 W/m² -
1787938508 36.11° C 47% 1017.3 hPa 0 mm - 757 W/m² -
1787938204 36.67° C 47% 1017.5 hPa 0 mm - 757 W/m² -
1787937899 36.11° C 48% 1017.6 hPa 0 mm - 762 W/m² -
1787937595 35.56° C 50% 1017.6 hPa 0 mm - 758 W/m² -
1787937291 35.56° C 49% 1017.7 hPa 0 mm - 746 W/m² -
1787936987 35.56° C 50% 1017.6 hPa 0 mm - 744 W/m² -
1787936685 35.56° C 50% 1017.7 hPa 0 mm - 755 W/m² -
1787936380 35.56° C 49% 1018 hPa 0 mm - 737 W/m² -
1787936076 35° C 51% 1017.8 hPa 0 mm - 758 W/m² -
1787935771 34.44° C 54% 1017.6 hPa 0 mm - 758 W/m² -
1787935467 35° C 52% 1017.9 hPa 0 mm - 757 W/m² -
1787935163 35.56° C 51% 1017.7 hPa 0 mm - 746 W/m² -
1787934858 35° C 53% 1017.7 hPa 0 mm - 738 W/m² -
1787934557 35° C 56% 1017.8 hPa 0 mm - 709 W/m² -
1787934252 34.44° C 57% 1017.8 hPa 0 mm - 705 W/m² -
1787933950 34.44° C 57% 1017.9 hPa 0 mm - 720 W/m² -
1787933645 34.44° C 57% 1017.9 hPa 0 mm - 744 W/m² -
1787933340 33.89° C 57% 1018 hPa 0 mm - 744 W/m² -
1787933040 33.33° C 59% 1017.8 hPa 0 mm - 701 W/m² -
1787932738 33.33° C 60% 1017.8 hPa 0 mm - 718 W/m² -
1787932433 33.33° C 59% 1017.8 hPa 0 mm - 717 W/m² -
1787932128 33.33° C 61% 1017.7 hPa 0 mm - 688 W/m² -

* Rain latest hour (hover to see other rain measurements)
** Current wind speed in m/s (hover to see current wind gust speed)